| time (UTC) | temp F | wind direction | speed MPH | gust MPH | rain 1hr in | rain 24hr in | rain mn in | humidity % | barometer mb |
| 20260503203046 | 72 | 271 | 3.0 | 8.0 | 0.00 | 0.00 | 0.00 | 50 | 1011.9 |
| 20260503201538 | 70 | 345 | 6.0 | 13.0 | 0.00 | 0.00 | 0.00 | 50 | 1012.2 |
| 20260503200052 | 70 | 304 | 5.0 | 13.0 | 0.00 | 0.00 | 0.00 | 56 | 1012.3 |
| 20260503194537 | 68 | 327 | 7.0 | 13.0 | 0.00 | 0.00 | 0.00 | 57 | 1012.4 |
| 20260503193040 | 67 | 286 | 7.0 | 13.0 | 0.00 | 0.00 | 0.00 | 62 | 1012.5 |
| 20260503191543 | 67 | 321 | 6.0 | 12.0 | 0.00 | 0.00 | 0.00 | 60 | 1012.6 |
| 20260503190039 | 66 | 290 | 10.0 | 15.0 | 0.00 | 0.00 | 0.00 | 59 | 1012.6 |
| 20260503184546 | 67 | 300 | 6.0 | 13.0 | 0.00 | 0.00 | 0.00 | 62 | 1012.6 |
| 20260503183042 | 67 | 277 | 6.0 | 12.0 | 0.00 | 0.00 | 0.00 | 61 | 1012.7 |
| 20260503181550 | 68 | 279 | 8.0 | 11.0 | 0.00 | 0.00 | 0.00 | 59 | 1012.9 |
| 20260503180048 | 68 | 282 | 6.0 | 10.0 | 0.00 | 0.00 | 0.00 | 62 | 1013.1 |
| 20260503174545 | 68 | 153 | 2.0 | 4.0 | 0.00 | 0.00 | 0.00 | 64 | 1013.3 |
| 20260503173052 | 68 | 90 | 2.0 | 7.0 | 0.00 | 0.00 | 0.00 | 72 | 1013.4 |
| 20260503171537 | 68 | 198 | 0.0 | 7.0 | 0.00 | 0.00 | 0.00 | 68 | 1013.6 |
| 20260503081542 | 55 | 344 | 1.0 | 1.0 | 0.00 | 0.01 | 0.00 | 80 | 1013.7 |
| 20260503071542 | 59 | 0 | 0.0 | 2.0 | 0.00 | 0.01 | 0.00 | 72 | 1013.6 |
| 20260503054537 | 58 | 118 | 1.0 | 3.0 | 0.00 | 0.01 | 0.01 | 81 | 1013.4 |
| 20260503053039 | 59 | 104 | 2.0 | 3.0 | 0.00 | 0.01 | 0.01 | 80 | 1013.4 |
| 20260503051539 | 59 | 82 | 1.0 | 2.0 | 0.00 | 0.01 | 0.01 | 79 | 1013.6 |
| 20260503050037 | 59 | 84 | 0.0 | 1.0 | 0.00 | 0.01 | 0.01 | 78 | 1013.6 |
| 20260503044539 | 60 | 92 | 0.0 | 2.0 | 0.00 | 0.01 | 0.01 | 79 | 1013.5 |
| 20260503043037 | 60 | 126 | 0.0 | 1.0 | 0.00 | 0.01 | 0.01 | 78 | 1013.4 |
| 20260503041537 | 60 | 130 | 0.0 | 1.0 | 0.00 | 0.01 | 0.01 | 78 | 1013.2 |
| 20260503040035 | 60 | 130 | 0.0 | 1.0 | 0.00 | 0.01 | 0.01 | 78 | 1013.2 |
| 20260503034538 | 60 | 0 | 0.0 | 1.0 | 0.00 | 0.01 | 0.01 | 76 | 1013.0 |
| 20260503033040 | 61 | 0 | 0.0 | 1.0 | 0.00 | 0.01 | 0.01 | 75 | 1012.8 |
| 20260503031538 | 63 | 231 | 1.0 | 1.0 | 0.00 | 0.01 | 0.01 | 73 | 1012.8 |
| 20260503030052 | 64 | 94 | 0.0 | 1.0 | 0.00 | 0.01 | 0.01 | 72 | 1012.8 |
| 20260503024542 | 64 | 0 | 0.0 | 3.0 | 0.00 | 0.01 | 0.01 | 74 | 1012.7 |
| 20260503023037 | 66 | 114 | 0.0 | 1.0 | 0.00 | 0.01 | 0.01 | 68 | 1012.5 |
| 20260503021540 | 64 | 103 | 0.0 | 2.0 | 0.00 | 0.01 | 0.01 | 71 | 1012.6 |
| 20260503020037 | 66 | 126 | 2.0 | 3.0 | 0.00 | 0.01 | 0.01 | 67 | 1012.8 |
| 20260503014547 | 67 | 87 | 1.0 | 4.0 | 0.00 | 0.01 | 0.01 | 68 | 1013.0 |
| 20260503013034 | 69 | 234 | 2.0 | 4.0 | 0.00 | 0.01 | 0.01 | 61 | 1013.0 |
| 20260503011548 | 70 | 202 | 1.0 | 4.0 | 0.00 | 0.01 | 0.01 | 61 | 1013.2 |
| 20260503010038 | 71 | 290 | 3.0 | 7.0 | 0.00 | 0.01 | 0.01 | 53 | 1013.2 |
| 20260503004539 | 72 | 327 | 1.0 | 4.0 | 0.00 | 0.01 | 0.01 | 53 | 1013.3 |
| 20260503003046 | 72 | 239 | 1.0 | 6.0 | 0.00 | 0.01 | 0.01 | 53 | 1013.3 |
| 20260503001537 | 71 | 267 | 3.0 | 8.0 | 0.00 | 0.01 | 0.01 | 55 | 1013.5 |
| 20260503000037 | 71 | 259 | 3.0 | 9.0 | 0.00 | 0.01 | 0.01 | 57 | 1013.5 |
| 20260502234541 | 72 | 211 | 3.0 | 9.0 | 0.00 | 0.01 | 0.01 | 52 | 1013.7 |
| 20260502233039 | 73 | 311 | 2.0 | 6.0 | 0.00 | 0.01 | 0.01 | 52 | 1013.7 |
| 20260502231538 | 72 | 311 | 3.0 | 10.0 | 0.00 | 0.01 | 0.01 | 53 | 1013.7 |
| 20260502230038 | 70 | 334 | 5.0 | 12.0 | 0.00 | 0.01 | 0.01 | 56 | 1013.8 |
| 20260502224537 | 70 | 309 | 4.0 | 11.0 | 0.00 | 0.01 | 0.01 | 57 | 1014.1 |
| 20260502223037 | 70 | 290 | 7.0 | 13.0 | 0.00 | 0.01 | 0.01 | 55 | 1014.2 |
| 20260502221533 | 69 | 298 | 2.0 | 12.0 | 0.00 | 0.01 | 0.01 | 56 | 1014.4 |
| 20260502220041 | 68 | 17 | 6.0 | 13.0 | 0.00 | 0.01 | 0.01 | 61 | 1014.6 |
| 20260502214537 | 68 | 285 | 6.0 | 11.0 | 0.00 | 0.01 | 0.01 | 61 | 1014.9 |
| 20260502213042 | 67 | 292 | 5.0 | 11.0 | 0.00 | 0.01 | 0.01 | 61 | 1015.0 |
| 20260502211536 | 67 | 285 | 8.0 | 13.0 | 0.00 | 0.01 | 0.01 | 60 | 1015.2 |
| 20260502210037 | 68 | 298 | 4.0 | 12.0 | 0.00 | 0.01 | 0.01 | 56 | 1015.3 |
| 20260502204535 | 66 | 296 | 7.0 | 15.0 | 0.00 | 0.01 | 0.01 | 60 | 1015.4 |